Location: Albany
(35.0000°S, 118.0000°E)
Time: 13:31:26
(UTC-04:00)

Transit 2A - Visible Passes

Search period start: 29 April 2017 00:00
Search period end: 09 May 2017 00:00
Orbit: 602 x 958 km, 66.7° (Epoch: 27 April)

Date Brightness Start Highest point End Pass type
(mag) Time Alt. Az. Time Alt. Az. Time Alt. Az.
29 Apr 7.3 05:44:36 10° S 05:49:31 25° SE 05:54:02 10° ENE visible
29 Apr 7.1 07:27:24 10° SW 07:33:00 45° WNW 07:38:02 10° N visible
30 Apr 6.4 06:53:11 10° SSW 06:59:06 69° WNW 07:04:23 10° NNE visible
01 May 6.1 06:19:08 10° SSW 06:25:07 81° ESE 06:30:27 10° NNE visible
01 May 9.2 08:05:51 10° W 08:07:19 11° W 08:08:45 10° WNW visible
02 May 6.3 05:45:10 10° SSW 05:51:02 55° ESE 05:56:18 10° NE visible
02 May 8.8 07:29:55 10° WSW 07:33:37 18° WNW 07:37:06 10° NW visible
03 May 8.3 06:55:05 10° SW 06:59:53 27° WNW 07:04:15 10° NNW visible
04 May 7.6 06:20:38 10° SW 06:26:03 41° WNW 06:30:57 10° N visible
05 May 6.8 05:46:23 10° SSW 05:52:10 62° WNW 05:57:21 10° NNE visible
06 May 9.5 18:06:16 10° NNE 18:10:28 20° ENE 18:14:48 10° ESE visible
07 May 9.3 06:23:24 10° WSW 06:26:38 16° WNW 06:29:42 10° NW visible
07 May 9.8 17:34:13 10° NE 17:36:44 13° E 17:39:18 10° ESE visible
08 May 8.9 05:48:24 10° SW 05:52:54 24° WNW 05:57:02 10° NNW visible
